Location: Tryon
(41.5533°N, 100.9574°W)
Time: 06:32:13
(UTC-05:00)

Envisat - Visible Passes

Search period start: 20 October 2019 00:00
Search period end: 30 October 2019 00:00
Orbit: 764 x 766 km, 98.1° (Epoch: 20 October)

Date Brightness Start Highest point End Pass type
(mag) Time Alt. Az. Time Alt. Az. Time Alt. Az.
20 Oct 5.4 20:51:43 10° SW 20:55:42 23° W 20:59:43 10° NW visible
21 Oct 6.3 07:22:03 10° ENE 07:24:39 14° E 07:27:14 10° ESE visible
21 Oct 3.9 20:13:48 10° S 20:18:43 51° W 20:23:41 10° NNW visible
22 Oct 2.9 19:36:54 10° SSE 19:41:56 73° ENE 19:47:01 10° N visible
22 Oct 6.1 21:19:11 10° WSW 21:21:29 13° W 21:23:47 10° WNW visible
23 Oct 5.0 20:39:58 10° SSW 20:44:21 29° W 20:48:46 10° NW visible
24 Oct 6.7 07:12:09 10° ENE 07:13:14 11° E 07:14:19 10° E visible
24 Oct 3.4 20:02:24 10° S 20:07:26 65° WSW 20:12:29 10° NNW visible
25 Oct 3.1 19:25:45 10° SSE 19:30:42 57° ENE 19:35:41 10° N visible
25 Oct 5.8 21:06:53 10° SW 21:10:05 17° W 21:13:18 10° NW visible
26 Oct 6.0 07:35:24 10° NE 07:39:02 20° E 07:42:40 10° SE visible
26 Oct 4.6 20:28:22 10° SSW 20:33:01 37° W 20:37:43 10° NNW visible
27 Oct 3.1 19:51:05 10° SSE 19:56:10 82° WSW 20:01:16 10° NNW visible
28 Oct 3.3 19:14:41 10° SE 19:19:29 45° ENE 19:24:19 10° N visible
28 Oct 5.5 20:54:54 10° SW 20:58:42 21° W 21:02:32 10° NW visible
29 Oct 6.2 07:24:42 10° NE 07:27:40 15° E 07:30:36 10° SE visible
29 Oct 4.1 20:16:51 10° S 20:21:42 46° W 20:26:36 10° NNW visible
